Weather History for Ahmedabad, India

Change the Weather History Date:

Thursday, January 10, 2013

  Actual Average Record
Temperature  
Mean Temperature 65 °F -  
Max Temperature 82 °F 80 °F 87 °F (2006)
Min Temperature 48 °F 55 °F 46 °F (2014)
Growing Degree Days 15 (Base 50)    
Moisture  
Dew Point 43 °F    
Average Humidity 49    
Maximum Humidity 82    
Minimum Humidity 21    
Precipitation  
Precipitation 0.00 in 0.00 in - ()
Sea Level Pressure  
Sea Level Pressure 29.97 in    
Wind  
Wind Speed 4 mph ()    
Max Wind Speed 8 mph    
Max Gust Speed -    
Visibility 2.6 miles    
Events      
Averages and records for this station are not official NWS values.
T = Trace of Precipitation, MM = Missing Value Source: Averaged Metar Reports

Daily Weather History Graph

Daily Weather History Graph

Search for Another Location

Airport:

Trip Planner

Search our weather history database for the weather conditions in past years. The results will help you decide how hot, cold, wet, or windy it might be!

Date:

Astronomy

Jan. 10, 2013 Rise Set
Actual Time 7:22 AM IST 6:11 PM IST
Civil Twilight 6:58 AM IST 6:35 PM IST
Nautical Twilight 6:30 AM IST 7:03 PM IST
Astronomical Twilight 6:02 AM IST 7:31 PM IST
Moon 5:35 AM IST (1/10) 4:48 PM IST (1/10)
Length of Visible Light 11h 37m
Length of Day
10h 49m
Waning Crescent, 3% of the Moon is Illuminated
Jan 10
Waning Crescent
Jan 12
New
Jan 19
First Quarter
Jan 27
Full
Feb 3
Last Quarter

Hourly Weather History & Observations

Time (IST) Temp. Dew Point Humidity Pressure Visibility Wind Dir Wind Speed Gust Speed Precip Events Conditions
12:10 AM 59.0 °F 41.0 °F 51% 29.98 in 2.5 mi NE 5.8 mph - N/A   Smoke
12:40 AM 57.2 °F 41.0 °F 55% 29.95 in 2.5 mi ENE 5.8 mph - N/A   Smoke
1:10 AM 57.2 °F 39.2 °F 51% 29.95 in 2.5 mi ENE 4.6 mph - N/A   Smoke
1:40 AM 55.4 °F 41.0 °F 58% 29.95 in 2.5 mi ENE 3.5 mph - N/A   Smoke
2:10 AM 53.6 °F 42.8 °F 67% 29.95 in 2.5 mi NE 4.6 mph - N/A   Haze
2:30 AM 53 °F 46 °F 69% 29.99 in 2 mi Calm Calm - -  
2:40 AM 53.6 °F 44.6 °F 72% 29.95 in 2.5 mi NNE 4.6 mph - N/A   Haze
3:10 AM 53.6 °F 41.0 °F 62% 29.95 in 2.5 mi NNE 3.5 mph - N/A   Haze
3:40 AM 51.8 °F 44.6 °F 76% 29.95 in 2.5 mi North 3.5 mph - N/A   Haze
4:10 AM 51.8 °F 42.8 °F 71% 29.95 in 2.5 mi North 3.5 mph - N/A   Haze
4:40 AM 50.0 °F 44.6 °F 82% 29.95 in 2.5 mi North 3.5 mph - N/A   Haze
5:10 AM 50.0 °F 42.8 °F 76% 29.95 in 2.5 mi NE 3.5 mph - N/A   Haze
5:30 AM 54 °F 44 °F 59% 29.98 in 2 mi Calm Calm - -  
5:40 AM 50.0 °F 42.8 °F 76% 29.95 in 2.5 mi NE 3.5 mph - N/A   Haze
6:10 AM 50.0 °F 39.2 °F 66% 29.98 in 2.5 mi NNE 3.5 mph - N/A   Haze
6:40 AM 48.2 °F 39.2 °F 71% 29.98 in 2.2 mi Calm Calm - N/A   Haze
7:40 AM 50.0 °F 39.2 °F 66% 30.01 in 1.6 mi ENE 3.5 mph - N/A   Smoke
8:10 AM 51.8 °F 37.4 °F 58% 30.01 in 1.2 mi NNE 3.5 mph - N/A   Smoke
9:10 AM 64.4 °F 33.8 °F 32% 30.04 in 1.6 mi ENE 4.6 mph - N/A   Smoke
10:10 AM 69.8 °F 37.4 °F 31% 30.04 in 2.5 mi ENE 5.8 mph - N/A   Smoke
10:40 AM 71.6 °F 39.2 °F 31% 30.04 in 2.5 mi ENE 5.8 mph - N/A   Smoke
11:30 AM 76 °F 45 °F 23% 30.06 in 2 mi East 3.5 mph - -   Smoke
11:40 AM 77.0 °F 41.0 °F 28% 30.01 in 3.1 mi ENE 5.8 mph - N/A   Smoke
12:10 PM 78.8 °F 41.0 °F 26% 30.01 in 3.1 mi East 5.8 mph - N/A   Smoke
12:40 PM 80.6 °F 42.8 °F 26% 29.98 in 3.7 mi ENE 5.8 mph - N/A   Unknown
1:10 PM 80.6 °F 41.0 °F 24% 29.98 in 3.7 mi ENE 5.8 mph - N/A   Unknown
2:10 PM 82.4 °F 39.2 °F 21% 29.95 in 3.7 mi NE 8.1 mph - N/A   Unknown
2:40 PM 84.2 °F 41.0 °F 22% 29.92 in 3.7 mi ENE 6.9 mph - N/A   Unknown
4:10 PM 84.2 °F 41.0 °F 22% 29.92 in 3.7 mi NE 6.9 mph - N/A   Unknown
4:40 PM 84.2 °F 41.0 °F 22% 29.92 in 3.7 mi NE 6.9 mph - N/A   Unknown
5:10 PM 82.4 °F 41.0 °F 23% 29.92 in 3.7 mi NE 6.9 mph - N/A   Unknown
5:30 PM 81 °F 49 °F 22% 29.96 in 2 mi North 4.6 mph - -  
7:10 PM 71.6 °F 42.8 °F 35% 29.95 in 2.5 mi NNE 3.5 mph - N/A   Smoke
7:40 PM 69.8 °F 46.4 °F 43% 29.95 in 2.5 mi North 3.5 mph - N/A   Smoke
8:10 PM 66.2 °F 44.6 °F 46% 29.98 in 2.5 mi NNE 3.5 mph - N/A   Smoke
8:30 PM 63 °F 52 °F 59% 29.99 in 2 mi NE 3.5 mph - -   Haze
9:10 PM 62.6 °F 50.0 °F 63% 29.98 in 2.5 mi NNE 4.6 mph - N/A   Smoke
9:40 PM 62.6 °F 46.4 °F 55% 29.98 in 2.5 mi NE 4.6 mph - N/A   Smoke
10:10 PM 62.6 °F 50.0 °F 63% 29.98 in 2.5 mi North 3.5 mph - N/A   Smoke
10:40 PM 62.6 °F 46.4 °F 55% 29.98 in 2.5 mi NNE 3.5 mph - N/A   Smoke
11:10 PM 62.6 °F 46.4 °F 55% 29.98 in 2.5 mi NNE 3.5 mph - N/A   Smoke
11:40 PM 60.8 °F 44.6 °F 55% 29.98 in 2.5 mi NNE 4.6 mph - N/A   Smoke